Simultaneous Nadir Overpasses (SNOs) Predictions

Prediction of SNOs between LANDSAT-8 and METOP-A Satellite Orbit:

Table of predicted SNOs for the next 14.0 days since TLE Epoch: 7/17/2021
Index Date (LANDSAT-8) Time (LANDSAT-8) Lat,Lon (LANDSAT-8) SZA (LANDSAT-8 ) Date (METOP-A) Time (METOP-A) Lat,Lon (METOP-A) SZA (METOP-A ) Distance(km) Time Diff (sec)
1 07/17/2021 22:02:34 -81.36, 73.59 117.29 07/17/2021 22:02:13 -81.35, 73.60 117.30 1.30 21
2 07/17/2021 22:52:01 81.35,-119.02 62.69 07/17/2021 22:52:54 81.35,-119.02 62.71 0.16 53
3 07/20/2021 17:36:51 -81.36, 140.03 116.78 07/20/2021 17:36:34 -81.35, 140.04 116.80 1.73 17
4 07/20/2021 18:26:18 81.35, -52.61 63.19 07/20/2021 18:27:15 81.35, -52.60 63.22 0.31 57
5 07/23/2021 13:11:09 -81.34,-153.94 116.28 07/23/2021 13:10:56 -81.36,-153.92 116.27 1.68 13
6 07/23/2021 14:00:35 81.35, 13.78 63.74 07/23/2021 14:01:36 81.34, 13.80 63.77 0.54 61
7 07/26/2021 08:45:25 -81.34, -87.54 115.68 07/26/2021 08:45:16 -81.36, -87.50 115.67 1.71 9
8 07/26/2021 09:34:51 81.34, 80.14 64.34 07/26/2021 09:35:56 81.34, 80.20 64.37 0.95 65
9 07/29/2021 04:19:42 -81.34, -21.16 115.04 07/29/2021 04:19:37 -81.35, -21.09 115.03 2.07 5



Historial Predications of SNOs between LANDSAT-8 and METOP-A
